Location: Aalsum
(53.3404°N, 6.0062°E)
Time: 04:22:50
(UTC+00:00)

Cosmos 2322 Rocket - Pass Details

Date: 28 January 2023
Orbit: 831 x 851 km, 71.0° (Epoch: 24 March)

Event Time Altitude Azimuth Distance (km) Brightness Sun altitude
Rises 18:04:06 0° 162° (SSE) 3,366 5.2 -16.7°
Reaches altitude 10° 18:07:08 10° 145° (SE) 2,437 4.3 -17.1°
Enters shadow 18:08:50 16° 130° (SE) 2,050 3.8 -17.4°
